Date,TemperatureHighF,TemperatureAvgF,TemperatureLowF,DewpointHighF,DewpointAvgF,DewpointLowF,HumidityHigh,HumidityAvg,HumidityLow,PressureMaxIn,PressureMinIn,WindSpeedMaxMPH,WindSpeedAvgMPH,GustSpeedMaxMPH,PrecipitationSumIn
2012-12-1,60,58,57,58,57,56,97,95,91,29.84,29.78,1,0,0,0.57
2012-12-2,62,56,45,60,53,43,97,91,72,29.99,29.66,13,1,22,0.48
2012-12-3,60,49,40,51,45,38,100,88,67,30.07,29.98,0,0,0,0.01
2012-12-4,62,54,46,57,51,45,97,88,60,30.10,30.01,3,0,0,0.00
2012-12-5,62,60,57,61,58,56,98,96,87,30.03,29.94,1,0,0,0.33
2012-12-6,60,54,49,57,51,47,97,90,70,30.01,29.94,2,0,0,0.00
2012-12-9,66,54,43,49,44,40,93,70,41,30.06,29.95,1,0,0,0.00
2012-12-10,68,50,41,51,43,39,97,80,44,30.09,29.97,3,0,0,0.00
2012-12-11,60,48,38,53,44,36,100,87,71,29.97,29.73,1,0,0,0.00
2012-12-12,53,47,38,48,44,36,96,88,67,29.78,29.70,5,0,0,0.12
2012-12-13,53,42,35,42,38,34,96,85,59,29.79,29.70,3,0,0,0.01
2012-12-14,52,46,39,46,42,37,97,86,66,29.89,29.70,1,0,0,0.01
2012-12-15,44,37,34,43,36,32,97,95,93,29.94,29.87,0,0,0,0.00
2012-12-16,55,54,43,52,50,42,97,89,84,29.94,29.89,6,0,0,0.01
2012-12-17,57,52,43,54,49,41,97,92,79,29.94,29.84,2,0,0,0.40
2012-12-18,52,44,34,41,36,32,95,75,50,30.00,29.86,6,1,14,0.00
2012-12-22,53,51,49,49,48,47,95,89,81,29.95,29.88,3,0,0,1.21
2012-12-23,53,50,45,52,48,44,96,93,90,29.95,29.80,1,0,0,3.02
2012-12-24,55,46,39,49,42,38,97,89,69,30.07,29.89,2,0,0,0.00
2012-12-25,49,42,38,48,41,37,100,96,94,30.02,29.72,0,0,0,0.64
2012-12-26,52,51,50,49,48,46,94,87,80,29.88,29.85,6,1,0,0.25
2012-12-27,54,50,40,43,41,39,96,74,58,30.02,29.97,2,0,0,0.00
2012-12-28,52,46,44,43,42,40,95,85,66,29.94,29.88,2,0,0,0.06
2012-12-29,52,44,36,44,41,35,100,91,70,29.94,29.86,3,0,0,0.26
2012-12-30,50,38,34,46,36,32,100,95,79,29.97,29.90,2,0,0,0.01
2012-12-31,44,43,41,36,35,34,81,73,67,30.15,30.14,0,0,0,0.00